CW9206 Weather Reports


time (UTC)temp
C
wind
direction
speed
KPH
gust
KPH
rain 1hr
cm
rain 24hr
cm
rain mn
cm
humidity
%
barometer
mb
20260905102124 12 330 0.0 0.0 0.00 0.10 0.00 92 1012.6
20260905101624 12 330 0.0 0.0 0.00 0.10 0.00 92 1012.7
20260905101124 12 330 0.0 0.0 0.00 0.10 0.00 92 1012.7
20260905100624 12 330 0.0 0.0 0.00 0.10 0.00 92 1012.6
20260905100124 12 330 0.0 0.0 0.00 0.10 0.00 91 1012.7
20260905095624 12 330 0.0 0.0 0.00 0.10 0.00 89 1012.7
20260905094624 12 330 0.0 0.0 0.00 0.10 0.00 86 1012.7
20260905094124 12 330 0.0 0.0 0.00 0.10 0.00 88 1012.8
20260905093624 12 330 0.0 0.0 0.00 0.10 0.00 88 1012.9
20260905092623 12 330 0.0 0.0 0.00 0.10 0.00 87 1012.9
20260905092124 12 330 0.0 0.0 0.00 0.10 0.00 87 1012.9
20260905091153 12 330 0.0 0.0 0.00 0.10 0.00 86 1013.0
20260905090624 12 330 0.0 0.0 0.00 0.10 0.00 87 1013.0
20260905090123 12 330 0.0 3.2 0.00 0.10 0.00 87 1013.0
20260905085624 12 330 0.0 3.2 0.00 0.10 0.00 87 1013.1
20260905084624 12 327 0.0 0.0 0.00 0.10 0.00 87 1013.2
20260905084154 12 327 0.0 1.6 0.00 0.10 0.00 87 1013.2
20260905083624 12 326 0.0 3.2 0.00 0.10 0.00 87 1013.2
20260905083123 12 326 1.6 3.2 0.00 0.10 0.00 86 1013.2
20260905082624 12 302 0.0 0.0 0.00 0.10 0.00 86 1013.2
20260905082123 12 302 0.0 0.0 0.00 0.10 0.00 86 1013.2
20260905081623 12 302 0.0 0.0 0.00 0.10 0.00 86 1013.2
20260905081124 12 302 0.0 0.0 0.00 0.10 0.00 86 1013.3
20260905080623 12 302 0.0 0.0 0.00 0.10 0.00 85 1013.4
20260905080154 13 302 0.0 0.0 0.00 0.10 0.00 85 1013.4
20260905075624 13 302 0.0 0.0 0.00 0.10 0.00 85 1013.3
20260905075154 13 302 0.0 0.0 0.00 0.10 0.00 84 1013.3
20260905074624 13 302 0.0 0.0 0.00 0.10 0.00 85 1013.3
20260905074124 13 302 0.0 0.0 0.00 0.10 0.00 84 1013.3
20260905073624 13 302 0.0 0.0 0.00 0.10 0.00 85 1013.2
20260905072624 13 302 0.0 0.0 0.00 0.10 0.00 85 1013.4
20260905072124 13 302 0.0 0.0 0.00 0.10 0.00 84 1013.4
20260905071623 13 302 0.0 0.0 0.00 0.10 0.00 84 1013.4
20260905071123 13 302 0.0 0.0 0.00 0.10 0.00 86 1013.3
20260905070623 13 302 0.0 0.0 0.00 0.10 0.00 85 1013.4
20260905070153 13 300 0.0 0.0 0.00 0.10 0.00 85 1013.3
20260905065654 13 300 0.0 0.0 0.00 0.10 0.10 85 1013.2
20260905065154 14 298 0.0 0.0 0.00 0.10 0.10 83 1013.1
20260905064653 14 298 0.0 0.0 0.00 0.10 0.10 82 1013.0
20260905064153 14 298 0.0 0.0 0.00 0.10 0.10 83 1012.9
20260905063653 14 298 0.0 1.6 0.00 0.10 0.10 84 1012.9
20260905063153 14 298 0.0 3.2 0.00 0.10 0.10 84 1013.0
20260905062653 15 290 1.6 3.2 0.00 0.10 0.10 84 1013.0
20260905062153 15 246 0.0 0.0 0.00 0.10 0.10 83 1013.0
20260905061653 15 246 0.0 0.0 0.00 0.10 0.10 84 1013.1
20260905060653 15 244 0.0 0.0 0.00 0.10 0.10 84 1013.0
20260905055153 15 244 0.0 0.0 0.00 0.10 0.10 84 1013.0
20260905054653 15 244 0.0 0.0 0.00 0.10 0.10 83 1013.0
20260905054153 15 246 0.0 0.0 0.00 0.10 0.10 85 1013.1
20260905053653 15 244 0.0 0.0 0.00 0.10 0.10 84 1013.0
20260905053153 15 244 0.0 0.0 0.00 0.10 0.10 84 1013.0
20260905052653 16 244 0.0 0.0 0.00 0.10 0.10 84 1013.1
20260905052153 16 244 0.0 0.0 0.00 0.10 0.10 84 1013.2
20260905051153 16 244 0.0 0.0 0.00 0.10 0.10 83 1013.3
20260905050653 16 239 0.0 0.0 0.00 0.10 0.10 83 1013.3
20260905050153 16 262 0.0 1.6 0.00 0.10 0.10 83 1013.3
20260905045653 16 262 0.0 1.6 0.00 0.10 0.10 83 1013.1
20260905045154 16 273 0.0 0.0 0.00 0.10 0.10 83 1013.1
20260905044153 16 273 0.0 0.0 0.00 0.10 0.10 82 1013.0
20260905043653 16 279 0.0 3.2 0.00 0.10 0.10 82 1012.9
20260905043153 16 333 0.0 3.2 0.00 0.10 0.10 82 1012.9
20260905042653 16 329 0.0 1.6 0.00 0.10 0.10 81 1012.9
20260905042153 16 227 0.0 3.2 0.00 0.10 0.10 81 1013.0
20260905041653 16 146 0.0 3.2 0.00 0.10 0.10 81 1012.8
20260905041153 17 223 0.0 0.0 0.00 0.10 0.10 81 1012.9
20260905040653 17 223 0.0 3.2 0.00 0.10 0.10 80 1012.9
20260905035654 17 278 0.0 3.2 0.00 0.10 0.10 80 1012.7
20260905035153 17 346 1.6 3.2 0.00 0.10 0.10 79 1012.6
20260905034653 17 214 0.0 3.2 0.00 0.10 0.10 79 1012.6
20260905034153 17 242 0.0 4.8 0.00 0.10 0.10 78 1012.5
20260905033653 17 273 0.0 4.8 0.00 0.10 0.10 78 1012.4
20260905033153 17 251 0.0 4.8 0.00 0.10 0.10 78 1012.4
20260905032653 17 261 0.0 4.8 0.00 0.10 0.10 77 1012.2
20260905032153 18 38 0.0 4.8 0.00 0.10 0.10 76 1012.2
20260905031653 18 269 0.0 4.8 0.00 0.10 0.10 75 1012.2
20260905031153 18 332 0.0 4.8 0.00 0.10 0.10 75 1012.0
20260905030653 18 250 0.0 4.8 0.00 0.10 0.10 73 1012.0
20260905030153 18 303 3.2 4.8 0.00 0.10 0.10 73 1011.9
20260905025653 18 247 3.2 3.2 0.00 0.10 0.10 72 1011.9
20260905025153 19 153 0.0 8.0 0.00 0.10 0.10 71 1011.9
20260905024653 19 309 0.0 8.0 0.00 0.10 0.10 70 1011.9
20260905024153 20 281 1.6 6.4 0.00 0.10 0.10 68 1011.9
20260905022653 21 350 0.0 3.2 0.00 0.10 0.10 64 1011.8
20260905022153 21 351 0.0 4.8 0.00 0.10 0.10 63 1011.9
20260905021653 21 165 0.0 4.8 0.00 0.10 0.10 62 1011.9
20260905021153 21 298 1.6 3.2 0.00 0.10 0.10 62 1011.9
20260905020653 21 342 0.0 3.2 0.00 0.10 0.10 61 1011.9
20260905020153 22 11 0.0 3.2 0.00 0.10 0.10 61 1011.7
20260905015653 22 237 0.0 3.2 0.00 0.10 0.10 61 1011.7
20260905015153 22 281 0.0 4.8 0.00 0.10 0.10 61 1011.6
20260905014653 22 298 0.0 14.5 0.00 0.10 0.10 61 1011.7
20260905014152 22 336 1.6 14.5 0.00 0.10 0.10 61 1011.6
20260905013652 22 211 0.0 6.4 0.00 0.10 0.10 60 1011.6
20260905013153 22 327 3.2 8.0 0.00 0.10 0.10 60 1011.6
20260905012652 23 137 1.6 8.0 0.00 0.10 0.10 60 1011.6
20260905012153 23 281 0.0 6.4 0.00 0.10 0.10 59 1011.6
20260905011152 23 150 0.0 11.3 0.00 0.10 0.10 58 1011.6
20260905010653 24 264 6.4 11.3 0.00 0.10 0.10 57 1011.6
20260905010153 24 290 6.4 16.1 0.00 0.10 0.10 57 1011.5
20260905005652 25 296 11.3 16.1 0.00 0.10 0.10 56 1011.5
20260905005153 25 76 0.0 8.0 0.00 0.10 0.10 55 1011.5
20260905004653 25 200 0.0 8.0 0.00 0.10 0.10 54 1011.5
20260905004153 26 250 1.6 6.4 0.00 0.10 0.10 54 1011.4
20260905003122 26 269 3.2 11.3 0.00 0.10 0.10 54 1011.4
20260905002653 26 292 3.2 11.3 0.00 0.10 0.10 53 1011.6
20260905002153 26 355 4.8 6.4 0.00 0.10 0.10 52 1011.5
20260905001652 26 276 0.0 11.3 0.00 0.10 0.10 53 1011.5
20260905001153 27 337 3.2 11.3 0.00 0.10 0.10 52 1011.5
20260905000653 27 20 3.2 11.3 0.00 0.10 0.10 52 1011.5
20260905000153 27 278 0.0 11.3 0.00 0.10 0.10 52 1011.5
20260904235652 27 246 0.0 11.3 0.00 0.10 0.10 52 1011.5
20260904235153 27 60 6.4 9.7 0.00 0.10 0.10 51 1011.5
20260904234652 27 219 1.6 9.7 0.00 0.10 0.10 50 1011.5
20260904234153 27 309 1.6 9.7 0.00 0.10 0.10 49 1011.5
20260904233652 28 76 0.0 9.7 0.00 0.10 0.10 49 1011.4
20260904233152 28 197 1.6 9.7 0.00 0.10 0.10 49 1011.4
20260904232653 28 238 3.2 17.7 0.00 0.10 0.10 49 1011.4
20260904232152 28 312 0.0 17.7 0.00 0.10 0.10 49 1011.3
20260904231653 28 282 0.0 9.7 0.00 0.10 0.10 48 1011.3
20260904231153 28 338 1.6 9.7 0.00 0.10 0.10 47 1011.3
20260904230652 28 276 4.8 9.7 0.00 0.10 0.10 47 1011.2
20260904230152 29 17 3.2 9.7 0.00 0.10 0.10 47 1011.3
20260904225652 29 317 1.6 9.7 0.00 0.10 0.10 46 1011.3
20260904225152 29 176 0.0 8.0 0.00 0.10 0.10 46 1011.3
20260904224652 29 128 1.6 8.0 0.00 0.10 0.10 46 1011.3
20260904224153 29 269 4.8 6.4 0.00 0.10 0.10 46 1011.3
20260904223652 29 310 4.8 8.0 0.00 0.10 0.10 46 1011.3
20260904222752 29 299 1.6 9.7 0.00 0.10 0.10 45 1011.3
20260904222253 29 52 0.0 8.0 0.00 0.10 0.10 45 1011.4
20260904221752 29 176 0.0 8.0 0.00 0.10 0.10 44 1011.4
20260904221252 30 55 1.6 8.0 0.00 0.10 0.10 44 1011.4
20260904220752 30 223 4.8 8.0 0.00 0.10 0.10 44 1011.4
20260904220252 30 236 1.6 8.0 0.00 0.10 0.10 44 1011.4
20260904215752 30 238 0.0 0.0 0.00 0.10 0.10 41 1011.4
20260904215252 31 277 0.0 3.2 0.00 0.10 0.10 40 1011.4
20260904214252 32 20 0.0 9.7 0.00 0.10 0.10 40 1011.5
20260904213752 32 82 1.6 3.2 0.00 0.10 0.10 40 1011.5
20260904213252 32 303 0.0 3.2 0.00 0.10 0.10 40 1011.4
20260904212752 32 311 0.0 4.8 0.00 0.10 0.10 39 1011.5
20260904212252 32 315 0.0 8.0 0.10 0.10 0.10 38 1011.5
20260904211752 32 41 0.0 8.0 0.10 0.10 0.10 37 1011.6
20260904211252 32 9 0.0 3.2 0.10 0.10 0.10 36 1011.7
20260904210752 32 340 0.0 4.8 0.10 0.10 0.10 36 1011.6
20260904205752 32 57 0.0 6.4 0.10 0.10 0.10 34 1011.7
20260904205252 32 296 0.0 8.0 0.10 0.10 0.10 35 1011.7
20260904204752 32 267 3.2 8.0 0.10 0.10 0.10 34 1011.7
20260904204252 32 113 0.0 3.2 0.10 0.10 0.10 34 1011.8
20260904203753 32 344 0.0 0.0 0.10 0.10 0.10 35 1011.9
20260904203252 32 346 0.0 0.0 0.10 0.10 0.10 35 1011.9
20260904202752 32 15 0.0 0.0 0.10 0.10 0.10 33 1011.9
20260904201752 30 218 0.0 0.0 0.00 0.00 0.00 37 1011.9
20260904201252 30 218 0.0 0.0 0.00 0.00 0.00 36 1012.0
20260904200752 30 218 0.0 0.0 0.00 0.00 0.00 37 1012.0
20260904200252 30 218 0.0 0.0 0.00 0.00 0.00 36 1012.0
20260904195752 30 218 0.0 0.0 0.00 0.00 0.00 36 1012.0
20260904195252 30 218 0.0 0.0 0.00 0.00 0.00 36 1012.2
20260904194752 30 218 0.0 0.0 0.00 0.00 0.00 36 1012.2
20260904194252 30 218 0.0 0.0 0.00 0.00 0.00 35 1012.3
20260904192752 28 218 0.0 0.0 0.00 0.00 0.00 35 1012.4
20260904192252 28 218 0.0 0.0 0.00 0.00 0.00 35 1012.4
20260904191752 28 218 0.0 0.0 0.00 0.00 0.00 34 1012.5
20260904191252 28 218 0.0 0.0 0.00 0.00 0.00 33 1012.7
20260904190752 27 218 0.0 0.0 0.00 0.00 0.00 33 1012.8
20260904190252 27 218 0.0 0.0 0.00 0.00 0.00 32 1012.9
20260904185252 27 218 0.0 0.0 0.00 0.00 0.00 29 1012.9
20260904184751 27 218 0.0 0.0 0.00 0.00 0.00 28 1012.9
20260904184252 26 218 0.0 0.0 0.00 0.00 0.00 27 1013.0
20260904183751 26 218 0.0 0.0 0.00 0.00 0.00 26 1013.1
20260904183251 26 218 0.0 0.0 0.00 0.00 0.00 25 1013.1
20260904182752 26 218 0.0 0.0 0.00 0.00 0.00 24 1013.1
20260904182251 25 218 0.0 0.0 0.00 0.00 0.00 23 1013.1
20260904181752 25 218 0.0 0.0 0.00 0.00 0.00 23 1013.2
20260904181251 25 218 0.0 0.0 0.00 0.00 0.00 23 1013.3
20260904180751 25 218 0.0 0.0 0.00 0.00 0.00 22 1013.3
20260904180251 24 218 0.0 0.0 0.00 0.00 0.00 21 1013.3
20260904175752 23 218 0.0 0.0 0.00 0.00 0.00 21 1013.2
20260904175251 23 218 0.0 0.0 0.00 0.00 0.00 21 1013.2
20260904174752 23 218 0.0 0.0 0.00 0.00 0.00 21 1013.4
20260904174251 23 218 0.0 0.0 0.00 0.00 0.00 20 1013.5
20260904173251 22 218 0.0 0.0 0.00 0.00 0.00 19 1013.5
20260904172751 22 218 0.0 0.0 0.00 0.00 0.00 19 1013.4
20260904172251 22 218 0.0 0.0 0.00 0.00 0.00 18 1013.4
20260904171752 22 218 0.0 0.0 0.00 0.00 0.00 18 1013.3
20260904171252 22 218 0.0 0.0 0.00 0.00 0.00 17 1013.3
20260904170751 21 218 0.0 0.0 0.00 0.00 0.00 17 1013.3
20260904170251 21 218 0.0 0.0 0.00 0.00 0.00 16 1013.4
20260904165751 21 218 0.0 0.0 0.00 0.00 0.00 16 1013.4
20260904165251 21 218 0.0 0.0 0.00 0.00 0.00 15 1013.3
20260904164752 20 218 0.0 0.0 0.00 0.00 0.00 14 1013.4
20260904164251 20 218 0.0 0.0 0.00 0.00 0.00 14 1013.4
20260904163751 20 218 0.0 0.0 0.00 0.00 0.00 13 1013.3
20260904163251 20 218 0.0 0.0 0.00 0.00 0.00 12 1013.2
20260904162751 19 218 0.0 0.0 0.00 0.00 0.00 12 1013.2
20260904162251 19 218 0.0 0.0 0.00 0.00 0.00 11 1013.2
20260904161751 18 218 0.0 0.0 0.00 0.00 0.00 11 1013.2
20260904161251 18 218 0.0 0.0 0.00 0.00 0.00 10 1013.3
20260904160751 18 218 0.0 0.0 0.00 0.00 0.00 10 1013.3
20260904160251 18 218 0.0 0.0 0.00 0.00 0.00 9 1013.3
20260904155251 18 218 0.0 0.0 0.00 0.00 0.00 8 1013.3
20260904154750 17 218 0.0 0.0 0.00 0.00 0.00 8 1013.2
20260904154251 17 218 0.0 0.0 0.00 0.00 0.00 8 1013.2
20260904153750 17 218 0.0 0.0 0.00 0.00 0.00 7 1013.2
20260904153250 17 218 0.0 0.0 0.00 0.00 0.00 7 1013.2
20260904152750 17 218 0.0 0.0 0.00 0.00 0.00 7 1013.2
20260904151751 17 218 0.0 0.0 0.00 0.00 0.00 6 1013.2
20260904151250 17 218 0.0 0.0 0.00 0.00 0.00 6 1013.1
20260904150750 17 218 0.0 0.0 0.00 0.00 0.00 6 1013.0
20260904150250 17 218 0.0 0.0 0.00 0.00 0.00 5 1013.0
20260904145750 17 218 0.0 0.0 0.00 0.00 0.00 5 1013.0
20260904144750 17 218 0.0 0.0 0.00 0.00 0.00 5 1012.9
20260904144250 17 218 0.0 0.0 0.00 0.00 0.00 5 1012.8
20260904143750 17 218 0.0 0.0 0.00 0.00 0.00 5 1012.7
20260904143249 16 218 0.0 0.0 0.00 0.00 0.00 5 1012.7
20260904142750 16 218 0.0 0.0 0.00 0.00 0.00 5 1012.7
20260904142250 16 218 0.0 0.0 0.00 0.00 0.00 5 1012.7
20260904141750 16 218 0.0 0.0 0.00 0.00 0.00 5 1012.6
20260904141249 16 218 0.0 0.0 0.00 0.00 0.00 5 1012.6
20260904140749 16 218 0.0 0.0 0.00 0.00 0.00 5 1012.6
20260904140249 16 218 0.0 0.0 0.00 0.00 0.00 5 1012.5
20260904135750 16 218 0.0 0.0 0.00 0.00 0.00 5 1012.6
20260904135250 16 218 0.0 0.0 0.00 0.00 0.00 5 1012.5
20260904134750 16 218 0.0 0.0 0.00 0.00 0.00 5 1012.5
20260904134249 16 218 0.0 0.0 0.00 0.00 0.00 5 1012.5
20260904133749 16 218 0.0 0.0 0.00 0.00 0.00 5 1012.5
20260904133249 16 218 0.0 0.0 0.00 0.00 0.00 5 1012.5
20260904132749 16 218 0.0 0.0 0.00 0.00 0.00 5 1012.5
20260904132249 16 218 0.0 0.0 0.00 0.00 0.00 5 1012.4
20260904131749 16 218 0.0 0.0 0.00 0.00 0.00 5 1012.3
20260904131249 16 218 0.0 0.0 0.00 0.00 0.00 5 1012.3
20260904130749 16 218 0.0 0.0 0.00 0.00 0.00 5 1012.3
20260904130249 16 218 0.0 0.0 0.00 0.00 0.00 5 1012.3
20260904125749 16 218 0.0 0.0 0.00 0.00 0.00 5 1012.4
20260904124749 15 218 0.0 0.0 0.00 0.00 0.00 5 1012.3
20260904124248 15 218 0.0 0.0 0.00 0.00 0.00 5 1012.4
20260904123748 15 218 0.0 0.0 0.00 0.00 0.00 5 1012.2
20260904122749 15 218 0.0 0.0 0.00 0.00 0.00 6 1012.2
20260904122248 15 218 0.0 0.0 0.00 0.00 0.00 6 1012.2
20260904121248 15 218 0.0 0.0 0.00 0.00 0.00 6 1012.2
20260904120749 15 218 0.0 0.0 0.00 0.00 0.00 6 1012.2
20260904120248 15 218 0.0 0.0 0.00 0.00 0.00 6 1012.2
20260904115748 15 218 0.0 0.0 0.00 0.00 0.00 6 1012.4
20260904115249 15 218 0.0 0.0 0.00 0.00 0.00 6 1012.3
20260904114748 15 218 0.0 0.0 0.00 0.00 0.00 6 1012.4
20260904114248 15 218 0.0 0.0 0.00 0.00 0.00 6 1012.5
20260904113749 15 218 0.0 0.0 0.00 0.00 0.00 6 1012.3
20260904113248 14 218 0.0 0.0 0.00 0.00 0.00 6 1012.3
20260904112748 14 218 0.0 0.0 0.00 0.00 0.00 6 1012.3
20260904112248 14 218 0.0 0.0 0.00 0.00 0.00 6 1012.3
20260904111748 14 218 0.0 0.0 0.00 0.00 0.00 6 1012.3
20260904111249 14 218 0.0 0.0 0.00 0.00 0.00 6 1012.3
20260904110748 14 218 0.0 0.0 0.00 0.00 0.00 6 1012.3
20260904110248 14 218 0.0 0.0 0.00 0.00 0.00 6 1012.4
20260904105748 15 218 0.0 0.0 0.00 0.00 0.00 6 1012.4
20260904104748 15 218 0.0 0.0 0.00 0.00 0.00 6 1012.4
20260904104248 15 218 0.0 0.0 0.00 0.00 0.00 6 1012.3
20260904103748 15 218 0.0 0.0 0.00 0.00 0.00 6 1012.4
20260904103248 15 218 0.0 0.0 0.00 0.00 0.00 6 1012.4
20260904102748 15 218 0.0 0.0 0.00 0.00 0.00 6 1012.3